BWA400 TTPP-TNCC

Flight info

Callsign BWA400
Flight time 1h 26m
Altitude 32000
Route MEGIR UL219 BONAX BONAX1B
Aircraft B38M/M-SDE1FGHILORVWXY/HB1

Departure

Time 2026-05-08 20:45
Airport Piarco International Airport (TTPP)

Arrival

Time 2026-05-08 22:11
Airport Hato International Airport (TNCC)
Time Latitude Longitude Altitude Speed Heading
2026-05-08 19:52 10.59976 -61.33995 45 ft 0 kts 20°
2026-05-08 20:34 10.59964 -61.34000 42 ft 2 kts 20°
2026-05-08 20:34 10.59949 -61.34005 42 ft 2 kts 20°
2026-05-08 20:34 10.59919 -61.34017 45 ft 2 kts 20°
2026-05-08 20:35 10.59903 -61.34022 43 ft 2 kts 10°
2026-05-08 20:35 10.59887 -61.34024 45 ft 2 kts 356°
2026-05-08 20:35 10.59871 -61.34022 40 ft 2 kts 355°
2026-05-08 20:35 10.59855 -61.34020 40 ft 2 kts 341°
2026-05-08 20:36 10.59842 -61.34012 43 ft 2 kts 298°
2026-05-08 20:36 10.59838 -61.33997 41 ft 2 kts 270°
2026-05-08 20:36 10.59838 -61.33985 45 ft 0 kts 270°
2026-05-08 20:40 10.59837 -61.33993 45 ft 3 kts 266°
2026-05-08 20:40 10.59838 -61.34021 45 ft 5 kts 274°
2026-05-08 20:40 10.59837 -61.34071 44 ft 9 kts 269°
2026-05-08 20:40 10.59830 -61.34142 42 ft 11 kts 246°
2026-05-08 20:41 10.59761 -61.34175 43 ft 12 kts 183°
2026-05-08 20:41 10.59709 -61.34235 43 ft 14 kts 263°
2026-05-08 20:41 10.59707 -61.34344 42 ft 17 kts 270°
2026-05-08 20:41 10.59706 -61.34469 40 ft 17 kts 265°
2026-05-08 20:42 10.59657 -61.34526 40 ft 1 kts 190°
2026-05-08 20:42 10.59643 -61.34526 40 ft 0 kts 181°
2026-05-08 20:43 10.59642 -61.34527 40 ft 1 kts 181°
2026-05-08 20:43 10.59624 -61.34527 40 ft 4 kts 180°
2026-05-08 20:43 10.59584 -61.34526 40 ft 7 kts 175°
2026-05-08 20:44 10.59542 -61.34495 40 ft 8 kts 115°
2026-05-08 20:44 10.59535 -61.34438 41 ft 9 kts 91°
2026-05-08 20:44 10.59535 -61.34326 43 ft 30 kts 89°
2026-05-08 20:44 10.59538 -61.33842 46 ft 112 kts 91°
2026-05-08 20:45 10.59525 -61.32820 59 ft 174 kts 90°
2026-05-08 20:45 10.59581 -61.31911 63 ft 204 kts 85°
2026-05-08 20:45 10.59593 -61.29941 826 ft 206 kts 90°
2026-05-08 20:45 10.59561 -61.28481 1461 ft 207 kts 90°
2026-05-08 20:46 10.59527 -61.27043 2076 ft 201 kts 90°
2026-05-08 20:46 10.59502 -61.25656 2657 ft 190 kts 90°
2026-05-08 20:46 10.59485 -61.24320 3155 ft 188 kts 90°
2026-05-08 20:46 10.59464 -61.22999 3661 ft 185 kts 90°
2026-05-08 20:47 10.59447 -61.21701 4124 ft 188 kts 90°
2026-05-08 20:47 10.59425 -61.20356 4636 ft 192 kts 90°
2026-05-08 20:47 10.59402 -61.18978 5126 ft 196 kts 90°
2026-05-08 20:47 10.59374 -61.17586 5671 ft 196 kts 90°
2026-05-08 20:48 10.59335 -61.16206 6259 ft 198 kts 90°
2026-05-08 20:48 10.59160 -61.14753 6756 ft 216 kts 108°
2026-05-08 20:48 10.58373 -61.13427 7279 ft 230 kts 133°
2026-05-08 20:48 10.56999 -61.12496 7844 ft 247 kts 158°
2026-05-08 20:49 10.55250 -61.12200 8431 ft 264 kts 181°
2026-05-08 20:49 10.53433 -61.12631 9031 ft 280 kts 203°
2026-05-08 20:49 10.51766 -61.13759 9644 ft 294 kts 221°
2026-05-08 20:49 10.50350 -61.15321 10198 ft 307 kts 236°
2026-05-08 20:50 10.49435 -61.17295 10754 ft 318 kts 255°
2026-05-08 20:50 10.49042 -61.19541 11292 ft 328 kts 266°
2026-05-08 20:50 10.48949 -61.21915 11830 ft 338 kts 271°
2026-05-08 20:50 10.48985 -61.24313 12364 ft 348 kts 273°
2026-05-08 20:51 10.49053 -61.26823 12904 ft 357 kts 274°
2026-05-08 20:51 10.49126 -61.29343 13447 ft 365 kts 273°
2026-05-08 20:51 10.49213 -61.31969 13969 ft 372 kts 273°
2026-05-08 20:51 10.49297 -61.34631 14463 ft 379 kts 274°
2026-05-08 20:52 10.49390 -61.37311 14958 ft 385 kts 273°
2026-05-08 20:52 10.49492 -61.40054 15475 ft 390 kts 273°
2026-05-08 20:52 10.49601 -61.42824 15992 ft 394 kts 273°
2026-05-08 20:52 10.49716 -61.45603 16511 ft 398 kts 273°
2026-05-08 20:53 10.49839 -61.48428 17053 ft 401 kts 274°
2026-05-08 20:53 10.49967 -61.51256 17597 ft 403 kts 273°
2026-05-08 20:53 10.50107 -61.54112 18157 ft 406 kts 274°
2026-05-08 20:53 10.50368 -61.56982 18620 ft 408 kts 277°
2026-05-08 20:54 10.50726 -61.59852 19095 ft 409 kts 277°
2026-05-08 20:54 10.51129 -61.62735 19572 ft 411 kts 278°
2026-05-08 20:54 10.51550 -61.65590 20060 ft 412 kts 278°
2026-05-08 20:54 10.51991 -61.68484 20553 ft 413 kts 278°
2026-05-08 20:55 10.52439 -61.71347 21062 ft 414 kts 278°
2026-05-08 20:55 10.52906 -61.74263 21571 ft 414 kts 278°
2026-05-08 20:55 10.53377 -61.77133 22097 ft 415 kts 278°
2026-05-08 20:55 10.53861 -61.80016 22619 ft 415 kts 278°
2026-05-08 20:56 10.54357 -61.82913 23166 ft 415 kts 278°
2026-05-08 20:56 10.54822 -61.85781 23669 ft 414 kts 275°
2026-05-08 20:56 10.55002 -61.88703 24135 ft 413 kts 270°
2026-05-08 20:56 10.55064 -61.91633 24604 ft 412 kts 270°
2026-05-08 20:57 10.55115 -61.94521 25082 ft 412 kts 270°
2026-05-08 20:57 10.55158 -61.97441 25566 ft 412 kts 270°
2026-05-08 20:57 10.55201 -62.00367 25975 ft 414 kts 269°
2026-05-08 20:57 10.55236 -62.03271 26382 ft 416 kts 270°
2026-05-08 20:58 10.55350 -62.06203 26790 ft 418 kts 272°
2026-05-08 20:58 10.55733 -62.09166 27212 ft 421 kts 279°
2026-05-08 20:58 10.56381 -62.12057 27632 ft 423 kts 282°
2026-05-08 20:58 10.57100 -62.14957 28062 ft 423 kts 281°
2026-05-08 20:59 10.57677 -62.17883 28496 ft 423 kts 277°
2026-05-08 20:59 10.58170 -62.20863 28816 ft 427 kts 278°
2026-05-08 20:59 10.58722 -62.23840 29069 ft 432 kts 279°
2026-05-08 20:59 10.59341 -62.26837 29326 ft 435 kts 280°
2026-05-08 21:00 10.59945 -62.29866 29594 ft 435 kts 279°
2026-05-08 21:00 10.60509 -62.32886 29862 ft 434 kts 279°
2026-05-08 21:00 10.61067 -62.35866 30102 ft 433 kts 279°
2026-05-08 21:00 10.61655 -62.38885 30337 ft 432 kts 279°
2026-05-08 21:01 10.62241 -62.41885 30567 ft 431 kts 279°
2026-05-08 21:01 10.62808 -62.44844 30796 ft 430 kts 279°
2026-05-08 21:01 10.63381 -62.47856 31035 ft 434 kts 279°
2026-05-08 21:01 10.63964 -62.50895 31274 ft 438 kts 279°
2026-05-08 21:02 10.64546 -62.53913 31506 ft 442 kts 279°
2026-05-08 21:02 10.65142 -62.57011 31741 ft 445 kts 279°
2026-05-08 21:02 10.65729 -62.60081 31983 ft 445 kts 279°
2026-05-08 21:02 10.66323 -62.63189 32230 ft 445 kts 279°
2026-05-08 21:03 10.66914 -62.66272 32476 ft 444 kts 279°
2026-05-08 21:03 10.67504 -62.69349 32724 ft 443 kts 279°
2026-05-08 21:03 10.68086 -62.72396 32973 ft 442 kts 279°
2026-05-08 21:03 10.68670 -62.75451 33231 ft 442 kts 279°
2026-05-08 21:04 10.69257 -62.78523 33479 ft 441 kts 279°
2026-05-08 21:04 10.69845 -62.81604 33745 ft 440 kts 279°
2026-05-08 21:04 10.70431 -62.84672 33996 ft 439 kts 279°
2026-05-08 21:04 10.71004 -62.87676 34217 ft 438 kts 279°
2026-05-08 21:05 10.71585 -62.90723 34391 ft 437 kts 279°
2026-05-08 21:05 10.72163 -62.93759 34532 ft 436 kts 279°
2026-05-08 21:05 10.72735 -62.96760 34673 ft 435 kts 279°
2026-05-08 21:05 10.73309 -62.99778 34810 ft 434 kts 279°
2026-05-08 21:06 10.73886 -63.02810 34951 ft 434 kts 279°
2026-05-08 21:06 10.74459 -63.05826 35090 ft 433 kts 279°
2026-05-08 21:06 10.74839 -63.07824 35185 ft 433 kts 279°
2026-05-08 21:06 10.75405 -63.10806 35329 ft 432 kts 279°
2026-05-08 21:07 10.76175 -63.14822 35522 ft 432 kts 281°
2026-05-08 21:07 10.77271 -63.19767 35762 ft 431 kts 281°
2026-05-08 21:07 10.77917 -63.22757 35913 ft 431 kts 281°
2026-05-08 21:08 10.78781 -63.26703 35914 ft 430 kts 282°
2026-05-08 21:08 10.79884 -63.31703 35897 ft 433 kts 281°
2026-05-08 21:09 10.81184 -63.37659 35893 ft 433 kts 281°
2026-05-08 21:09 10.82502 -63.43669 35891 ft 433 kts 281°
2026-05-08 21:10 10.83816 -63.49687 35894 ft 436 kts 281°
2026-05-08 21:10 10.85129 -63.55695 35892 ft 436 kts 281°
2026-05-08 21:11 10.86440 -63.61704 35893 ft 436 kts 281°
2026-05-08 21:11 10.87748 -63.67706 35892 ft 436 kts 281°
2026-05-08 21:12 10.89058 -63.73720 35891 ft 436 kts 281°
2026-05-08 21:12 10.90374 -63.79771 35891 ft 439 kts 282°
2026-05-08 21:13 10.91684 -63.85800 35888 ft 439 kts 282°
2026-05-08 21:13 10.93006 -63.91886 35888 ft 439 kts 282°
2026-05-08 21:14 10.94320 -63.97944 35887 ft 439 kts 282°
2026-05-08 21:14 10.95636 -64.04017 35888 ft 439 kts 282°
2026-05-08 21:15 10.96945 -64.10066 35902 ft 442 kts 282°
2026-05-08 21:15 10.98267 -64.16176 35902 ft 442 kts 282°
2026-05-08 21:16 10.99588 -64.22293 35897 ft 441 kts 282°
2026-05-08 21:16 11.00902 -64.28380 35900 ft 442 kts 282°
2026-05-08 21:17 11.02225 -64.34519 35904 ft 442 kts 282°
2026-05-08 21:17 11.03541 -64.40629 35892 ft 444 kts 282°
2026-05-08 21:18 11.04869 -64.46799 35884 ft 444 kts 282°
2026-05-08 21:18 11.06184 -64.52919 35900 ft 444 kts 282°
2026-05-08 21:19 11.07500 -64.59047 35891 ft 444 kts 282°
2026-05-08 21:19 11.09113 -64.65159 35898 ft 444 kts 287°
2026-05-08 21:20 11.10994 -64.71132 35909 ft 444 kts 287°
2026-05-08 21:20 11.12856 -64.77111 35908 ft 444 kts 287°
2026-05-08 21:21 11.14730 -64.83095 35900 ft 444 kts 287°
2026-05-08 21:21 11.16610 -64.89123 35909 ft 445 kts 287°
2026-05-08 21:22 11.18476 -64.95101 35903 ft 445 kts 287°
2026-05-08 21:22 11.20350 -65.01118 35897 ft 447 kts 288°
2026-05-08 21:23 11.22234 -65.07165 35894 ft 447 kts 288°
2026-05-08 21:23 11.24108 -65.13187 35903 ft 447 kts 288°
2026-05-08 21:24 11.25979 -65.19200 35901 ft 447 kts 288°
2026-05-08 21:24 11.27866 -65.25272 35898 ft 447 kts 288°
2026-05-08 21:25 11.29735 -65.31294 35894 ft 448 kts 288°
2026-05-08 21:25 11.31621 -65.37368 35901 ft 455 kts 289°
2026-05-08 21:26 11.33528 -65.43524 35907 ft 453 kts 289°
2026-05-08 21:26 11.35425 -65.49647 35911 ft 453 kts 289°
2026-05-08 21:27 11.37316 -65.55755 35906 ft 453 kts 289°
2026-05-08 21:27 11.39209 -65.61878 35888 ft 453 kts 289°
2026-05-08 21:28 11.41103 -65.68004 35908 ft 455 kts 289°
2026-05-08 21:28 11.43011 -65.74185 35906 ft 455 kts 289°
2026-05-08 21:29 11.44903 -65.80320 35905 ft 455 kts 289°
2026-05-08 21:29 11.46795 -65.86465 35891 ft 455 kts 289°
2026-05-08 21:30 11.48707 -65.92676 35904 ft 455 kts 289°
2026-05-08 21:30 11.50597 -65.98820 35905 ft 456 kts 289°
2026-05-08 21:31 11.52494 -66.04995 35905 ft 457 kts 289°
2026-05-08 21:31 11.54394 -66.11183 35904 ft 457 kts 289°
2026-05-08 21:32 11.56281 -66.17337 35904 ft 457 kts 289°
2026-05-08 21:32 11.58185 -66.23548 35902 ft 457 kts 289°
2026-05-08 21:33 11.60076 -66.29722 35900 ft 458 kts 290°
2026-05-08 21:33 11.61979 -66.35941 35902 ft 458 kts 290°
2026-05-08 21:34 11.63863 -66.42104 35905 ft 458 kts 290°
2026-05-08 21:34 11.65768 -66.48338 35902 ft 458 kts 290°
2026-05-08 21:35 11.67655 -66.54523 35899 ft 458 kts 289°
2026-05-08 21:35 11.69554 -66.60748 35902 ft 458 kts 289°
2026-05-08 21:36 11.71496 -66.66915 35900 ft 458 kts 290°
2026-05-08 21:36 11.73436 -66.73101 35896 ft 449 kts 290°
2026-05-08 21:36 11.74357 -66.76067 35752 ft 437 kts 290°
2026-05-08 21:37 11.75283 -66.79008 35401 ft 431 kts 290°
2026-05-08 21:37 11.76200 -66.81919 35038 ft 426 kts 290°
2026-05-08 21:37 11.77097 -66.84787 34681 ft 421 kts 290°
2026-05-08 21:37 11.77972 -66.87595 34337 ft 417 kts 291°
2026-05-08 21:38 11.78851 -66.90403 33958 ft 414 kts 291°
2026-05-08 21:38 11.79727 -66.93197 33520 ft 411 kts 291°
2026-05-08 21:38 11.80596 -66.95977 33070 ft 409 kts 291°
2026-05-08 21:38 11.81447 -66.98704 32649 ft 407 kts 291°
2026-05-08 21:39 11.82310 -67.01471 32226 ft 404 kts 292°
2026-05-08 21:39 11.83157 -67.04180 31829 ft 402 kts 292°
2026-05-08 21:39 11.84000 -67.06882 31407 ft 400 kts 292°
2026-05-08 21:39 11.84846 -67.09594 31007 ft 398 kts 292°
2026-05-08 21:40 11.85681 -67.12273 30605 ft 396 kts 292°
2026-05-08 21:40 11.86515 -67.14947 30285 ft 392 kts 292°
2026-05-08 21:40 11.87337 -67.17587 29981 ft 388 kts 292°
2026-05-08 21:41 11.88961 -67.22799 29284 ft 381 kts 292°
2026-05-08 21:41 11.89756 -67.25351 28940 ft 380 kts 292°
2026-05-08 21:41 11.90561 -67.27937 28593 ft 380 kts 292°
2026-05-08 21:41 11.91354 -67.30483 28263 ft 380 kts 292°
2026-05-08 21:42 11.92158 -67.33071 27945 ft 381 kts 292°
2026-05-08 21:42 11.92956 -67.35636 27627 ft 382 kts 292°
2026-05-08 21:42 11.93767 -67.38246 27310 ft 383 kts 292°
2026-05-08 21:42 11.94565 -67.40813 27008 ft 384 kts 292°
2026-05-08 21:43 11.95376 -67.43426 26695 ft 386 kts 292°
2026-05-08 21:43 11.96201 -67.46053 26405 ft 387 kts 292°
2026-05-08 21:43 11.97022 -67.48646 26102 ft 388 kts 292°
2026-05-08 21:43 11.97857 -67.51297 25803 ft 390 kts 292°
2026-05-08 21:44 11.98685 -67.53937 25512 ft 391 kts 292°
2026-05-08 21:44 11.99517 -67.56590 25211 ft 393 kts 292°
2026-05-08 21:44 12.00357 -67.59264 24920 ft 394 kts 292°
2026-05-08 21:44 12.01198 -67.61939 24632 ft 396 kts 292°
2026-05-08 21:45 12.02032 -67.64598 24350 ft 397 kts 292°
2026-05-08 21:45 12.02872 -67.67280 24052 ft 394 kts 292°
2026-05-08 21:45 12.03701 -67.69929 23743 ft 389 kts 292°
2026-05-08 21:45 12.04524 -67.72553 23432 ft 385 kts 292°
2026-05-08 21:46 12.05342 -67.75159 23037 ft 382 kts 292°
2026-05-08 21:46 12.06142 -67.77711 22655 ft 379 kts 292°
2026-05-08 21:46 12.06945 -67.80276 22273 ft 376 kts 292°
2026-05-08 21:46 12.07701 -67.82837 21895 ft 375 kts 285°
2026-05-08 21:47 12.07996 -67.85472 21542 ft 376 kts 276°
2026-05-08 21:47 12.08057 -67.88137 21172 ft 374 kts 273°
2026-05-08 21:47 12.08097 -67.90770 20800 ft 371 kts 274°
2026-05-08 21:47 12.08216 -67.93384 20421 ft 369 kts 276°
2026-05-08 21:48 12.08359 -67.96002 20053 ft 367 kts 275°
2026-05-08 21:48 12.08467 -67.98600 19675 ft 365 kts 274°
2026-05-08 21:48 12.08559 -68.01202 19303 ft 363 kts 274°
2026-05-08 21:48 12.08661 -68.03757 18940 ft 361 kts 274°
2026-05-08 21:49 12.08772 -68.06314 18584 ft 359 kts 274°
2026-05-08 21:49 12.08878 -68.08846 18231 ft 358 kts 274°
2026-05-08 21:49 12.08912 -68.11382 17823 ft 356 kts 266°
2026-05-08 21:49 12.08527 -68.13892 17430 ft 355 kts 258°
2026-05-08 21:50 12.07955 -68.16338 17024 ft 353 kts 256°
2026-05-08 21:50 12.07330 -68.18761 16631 ft 351 kts 255°
2026-05-08 21:50 12.06697 -68.21143 16236 ft 350 kts 256°
2026-05-08 21:50 12.05979 -68.23522 15854 ft 348 kts 251°
2026-05-08 21:51 12.05081 -68.25797 15474 ft 347 kts 247°
2026-05-08 21:51 12.04101 -68.28048 15098 ft 345 kts 246°
2026-05-08 21:51 12.03102 -68.30282 14725 ft 344 kts 246°
2026-05-08 21:51 12.02114 -68.32471 14361 ft 342 kts 245°
2026-05-08 21:52 12.01115 -68.34680 14003 ft 340 kts 245°
2026-05-08 21:52 12.00461 -68.36127 13835 ft 337 kts 245°
2026-05-08 21:52 11.99217 -68.39012 13489 ft 329 kts 251°
2026-05-08 21:52 11.98793 -68.40524 13287 ft 325 kts 258°
2026-05-08 21:53 11.98428 -68.42750 13003 ft 305 kts 264°
2026-05-08 21:53 11.98262 -68.44814 12697 ft 282 kts 270°
2026-05-08 21:53 11.98304 -68.46758 12379 ft 267 kts 275°
2026-05-08 21:53 11.98433 -68.48698 12189 ft 292 kts 276°
2026-05-08 21:54 11.98618 -68.50911 12038 ft 331 kts 277°
2026-05-08 21:54 11.98824 -68.53302 11883 ft 334 kts 276°
2026-05-08 21:54 11.99023 -68.55640 11694 ft 333 kts 276°
2026-05-08 21:54 11.99232 -68.57983 11482 ft 330 kts 276°
2026-05-08 21:55 11.99445 -68.60315 11279 ft 323 kts 277°
2026-05-08 21:55 11.99755 -68.62540 11058 ft 316 kts 281°
2026-05-08 21:55 12.00190 -68.64733 10828 ft 310 kts 284°
2026-05-08 21:56 12.01141 -68.68948 10366 ft 302 kts 285°
2026-05-08 21:56 12.01614 -68.71040 10119 ft 300 kts 284°
2026-05-08 21:56 12.02090 -68.73106 9845 ft 298 kts 284°
2026-05-08 21:56 12.02571 -68.75148 9539 ft 297 kts 285°
2026-05-08 21:57 12.03050 -68.77213 9240 ft 296 kts 284°
2026-05-08 21:57 12.03526 -68.79232 8945 ft 296 kts 284°
2026-05-08 21:57 12.04012 -68.81277 8638 ft 295 kts 284°
2026-05-08 21:57 12.04497 -68.83307 8333 ft 282 kts 284°
2026-05-08 21:58 12.04940 -68.85149 8075 ft 258 kts 284°
2026-05-08 21:58 12.05366 -68.86876 7825 ft 246 kts 285°
2026-05-08 21:58 12.05785 -68.88576 7620 ft 244 kts 284°
2026-05-08 21:58 12.06207 -68.90279 7355 ft 253 kts 285°
2026-05-08 21:59 12.06635 -68.91998 7082 ft 243 kts 285°
2026-05-08 21:59 12.07047 -68.93649 6807 ft 236 kts 284°
2026-05-08 21:59 12.07444 -68.95216 6511 ft 217 kts 284°
2026-05-08 21:59 12.07817 -68.96667 6210 ft 202 kts 284°
2026-05-08 22:00 12.08166 -68.98024 5875 ft 195 kts 284°
2026-05-08 22:00 12.08515 -68.99364 5563 ft 198 kts 284°
2026-05-08 22:00 12.08877 -69.00732 5246 ft 200 kts 285°
2026-05-08 22:00 12.09237 -69.02081 4975 ft 196 kts 284°
2026-05-08 22:01 12.09598 -69.03410 4703 ft 193 kts 285°
2026-05-08 22:01 12.09959 -69.04730 4431 ft 192 kts 285°
2026-05-08 22:01 12.10311 -69.06055 4178 ft 193 kts 285°
2026-05-08 22:01 12.10655 -69.07385 3966 ft 195 kts 285°
2026-05-08 22:02 12.10999 -69.08716 3761 ft 196 kts 285°
2026-05-08 22:02 12.11336 -69.10066 3550 ft 195 kts 285°
2026-05-08 22:02 12.11673 -69.11401 3314 ft 194 kts 285°
2026-05-08 22:02 12.11998 -69.12722 3066 ft 190 kts 285°
2026-05-08 22:03 12.12309 -69.14052 2835 ft 189 kts 285°
2026-05-08 22:03 12.12618 -69.15331 2610 ft 185 kts 291°
2026-05-08 22:03 12.13328 -69.16400 2419 ft 178 kts 323°
2026-05-08 22:03 12.14379 -69.16948 2411 ft 169 kts 356°
2026-05-08 22:04 12.15539 -69.16974 2413 ft 167 kts 11°
2026-05-08 22:04 12.16687 -69.16858 2416 ft 165 kts 13°
2026-05-08 22:04 12.17825 -69.16711 2408 ft 164 kts 14°
2026-05-08 22:04 12.18979 -69.16561 2408 ft 168 kts 14°
2026-05-08 22:05 12.20129 -69.16417 2413 ft 167 kts 14°
2026-05-08 22:05 12.21266 -69.16262 2347 ft 162 kts 18°
2026-05-08 22:05 12.22301 -69.15877 2224 ft 156 kts 34°
2026-05-08 22:05 12.23182 -69.15268 2081 ft 149 kts 53°
2026-05-08 22:06 12.23534 -69.14324 1961 ft 144 kts 89°
2026-05-08 22:06 12.23387 -69.13322 1914 ft 141 kts 104°
2026-05-08 22:06 12.23071 -69.12395 1919 ft 138 kts 108°
2026-05-08 22:06 12.22737 -69.11459 1922 ft 137 kts 108°
2026-05-08 22:07 12.22415 -69.10561 1919 ft 136 kts 108°
2026-05-08 22:07 12.22091 -69.09657 1880 ft 132 kts 107°
2026-05-08 22:07 12.21806 -69.08791 1801 ft 129 kts 105°
2026-05-08 22:07 12.21555 -69.07923 1769 ft 123 kts 106°
2026-05-08 22:08 12.21327 -69.07104 1745 ft 123 kts 104°
2026-05-08 22:08 12.21072 -69.06255 1684 ft 125 kts 104°
2026-05-08 22:08 12.20802 -69.05387 1520 ft 128 kts 103°
2026-05-08 22:08 12.20548 -69.04515 1277 ft 131 kts 103°
2026-05-08 22:09 12.20347 -69.03643 1235 ft 121 kts 99°
2026-05-08 22:09 12.20186 -69.02820 1165 ft 119 kts 97°
2026-05-08 22:09 12.20049 -69.01973 1030 ft 121 kts 98°
2026-05-08 22:09 12.19917 -69.01136 900 ft 118 kts 100°
2026-05-08 22:10 12.19764 -69.00285 672 ft 125 kts 101°
2026-05-08 22:10 12.19582 -68.99406 543 ft 127 kts 102°
2026-05-08 22:10 12.19400 -68.98502 367 ft 134 kts 101°
2026-05-08 22:10 12.19219 -68.97574 161 ft 128 kts 102°
2026-05-08 22:11 12.19049 -68.96719 47 ft 120 kts 103°
2026-05-08 22:11 12.18882 -68.95930 27 ft 104 kts 103°
2026-05-08 22:11 12.18777 -68.95400 28 ft 52 kts 96°
2026-05-08 22:11 12.18717 -68.95117 28 ft 38 kts 103°
2026-05-08 22:12 12.18663 -68.94857 30 ft 36 kts 104°
2026-05-08 22:12 12.18613 -68.94640 33 ft 26 kts 102°
2026-05-08 22:12 12.18560 -68.94506 32 ft 16 kts 124°
2026-05-08 22:12 12.18467 -68.94476 30 ft 13 kts 197°
2026-05-08 22:13 12.18414 -68.94541 31 ft 14 kts 265°
2026-05-08 22:13 12.18434 -68.94653 31 ft 18 kts 282°
2026-05-08 22:13 12.18463 -68.94793 30 ft 21 kts 282°
2026-05-08 22:13 12.18497 -68.94946 29 ft 22 kts 282°
2026-05-08 22:14 12.18528 -68.95094 30 ft 21 kts 283°
2026-05-08 22:14 12.18561 -68.95243 29 ft 23 kts 283°
2026-05-08 22:14 12.18590 -68.95376 29 ft 15 kts 282°
2026-05-08 22:14 12.18607 -68.95477 29 ft 13 kts 280°
2026-05-08 22:15 12.18599 -68.95542 29 ft 6 kts 226°
2026-05-08 22:15 12.18557 -68.95557 29 ft 6 kts 193°
2026-05-08 22:15 12.18537 -68.95563 29 ft 1 kts 201°
2026-05-08 22:15 12.18536 -68.95563 29 ft 0 kts 201°